| time (UTC) | temp C | wind direction | speed KPH | gust KPH | rain 1hr cm | rain 24hr cm | rain mn cm | humidity % | barometer mb |
| 20260502200003 | 15 | 219 | 1.6 | 6.4 | 0.00 | 0.00 | 0.00 | 79 | 1012.5 |
| 20260502195616 | 15 | 220 | 1.6 | 11.3 | 0.00 | 0.00 | 0.00 | 78 | 1012.5 |
| 20260502194503 | 16 | 229 | 4.8 | 14.5 | 0.00 | 0.00 | 0.00 | 78 | 1012.6 |
| 20260502193818 | 16 | 227 | 4.8 | 14.5 | 0.00 | 0.00 | 0.00 | 77 | 1012.5 |
| 20260502192703 | 16 | 208 | 3.2 | 12.9 | 0.00 | 0.00 | 0.00 | 75 | 1012.4 |
| 20260502191803 | 16 | 214 | 3.2 | 11.3 | 0.00 | 0.00 | 0.00 | 74 | 1012.5 |
| 20260502190903 | 16 | 201 | 1.6 | 4.8 | 0.00 | 0.00 | 0.00 | 73 | 1012.4 |
| 20260502190004 | 16 | 210 | 1.6 | 6.4 | 0.00 | 0.00 | 0.00 | 72 | 1012.5 |
| 20260502185403 | 16 | 194 | 1.6 | 8.0 | 0.00 | 0.00 | 0.00 | 71 | 1012.4 |
| 20260502184503 | 17 | 205 | 1.6 | 8.0 | 0.00 | 0.00 | 0.00 | 70 | 1012.5 |
| 20260502183818 | 17 | 215 | 1.6 | 4.8 | 0.00 | 0.00 | 0.00 | 69 | 1012.6 |
| 20260502182703 | 17 | 237 | 1.6 | 6.4 | 0.00 | 0.00 | 0.00 | 68 | 1012.6 |
| 20260502181803 | 17 | 236 | 1.6 | 9.7 | 0.00 | 0.00 | 0.00 | 68 | 1012.6 |
| 20260502180903 | 17 | 253 | 4.8 | 16.1 | 0.00 | 0.00 | 0.00 | 66 | 1012.7 |
| 20260502163603 | 21 | 240 | 11.3 | 25.7 | 0.00 | 0.00 | 0.00 | 38 | 1012.9 |
| 20260502162703 | 22 | 243 | 9.7 | 24.1 | 0.00 | 0.00 | 0.00 | 37 | 1012.8 |
| 20260502161803 | 22 | 245 | 11.3 | 30.6 | 0.00 | 0.00 | 0.00 | 38 | 1012.8 |
| 20260502160903 | 22 | 235 | 11.3 | 32.2 | 0.00 | 0.00 | 0.00 | 35 | 1012.8 |
| 20260502152019 | 23 | 244 | 9.7 | 22.5 | 0.00 | 0.00 | 0.00 | 33 | 1013.0 |
| 20260502150903 | 23 | 222 | 12.9 | 29.0 | 0.00 | 0.00 | 0.00 | 32 | 1013.1 |
| 20260502123603 | 23 | 197 | 9.7 | 24.1 | 0.00 | 0.00 | 0.00 | 37 | 1014.4 |
| 20260502122703 | 23 | 205 | 8.0 | 27.4 | 0.00 | 0.00 | 0.00 | 37 | 1014.5 |
| 20260502121803 | 23 | 214 | 9.7 | 25.7 | 0.00 | 0.00 | 0.00 | 39 | 1014.5 |
| 20260502121118 | 23 | 201 | 9.7 | 22.5 | 0.00 | 0.00 | 0.00 | 40 | 1014.6 |
| 20260502115403 | 23 | 216 | 8.0 | 24.1 | 0.00 | 0.00 | 0.00 | 40 | 1014.8 |
| 20260502114716 | 23 | 206 | 9.7 | 24.1 | 0.00 | 0.00 | 0.00 | 41 | 1015.0 |
| 20260502113603 | 23 | 207 | 9.7 | 20.9 | 0.00 | 0.00 | 0.00 | 42 | 1015.1 |
| 20260502112703 | 23 | 204 | 8.0 | 22.5 | 0.00 | 0.00 | 0.00 | 42 | 1015.3 |
| 20260502111803 | 22 | 204 | 11.3 | 25.7 | 0.00 | 0.00 | 0.00 | 42 | 1015.4 |
| 20260502110903 | 23 | 206 | 8.0 | 20.9 | 0.00 | 0.00 | 0.00 | 42 | 1015.4 |
| 20260502110003 | 22 | 199 | 9.7 | 22.5 | 0.00 | 0.00 | 0.00 | 43 | 1015.6 |
| 20260502105403 | 22 | 204 | 9.7 | 22.5 | 0.00 | 0.00 | 0.00 | 42 | 1015.6 |
| 20260502104503 | 22 | 209 | 9.7 | 29.0 | 0.00 | 0.00 | 0.00 | 42 | 1015.7 |
| 20260502103603 | 22 | 208 | 8.0 | 29.0 | 0.00 | 0.00 | 0.00 | 44 | 1015.7 |
| 20260502102703 | 22 | 200 | 8.0 | 25.7 | 0.00 | 0.00 | 0.00 | 43 | 1015.8 |
| 20260502101803 | 21 | 199 | 9.7 | 20.9 | 0.00 | 0.00 | 0.00 | 45 | 1015.9 |
| 20260502101117 | 21 | 207 | 9.7 | 19.3 | 0.00 | 0.00 | 0.00 | 46 | 1016.0 |
| 20260502090903 | 20 | 217 | 4.8 | 16.1 | 0.00 | 0.00 | 0.00 | 54 | 1016.4 |
| 20260502070903 | 16 | 200 | 6.4 | 16.1 | 0.00 | 0.00 | 0.00 | 66 | 1017.3 |
| 20260502070003 | 16 | 195 | 6.4 | 16.1 | 0.00 | 0.00 | 0.00 | 65 | 1017.4 |
| 20260502065403 | 16 | 195 | 4.8 | 14.5 | 0.00 | 0.00 | 0.00 | 66 | 1017.3 |
| 20260502064503 | 16 | 181 | 4.8 | 16.1 | 0.00 | 0.00 | 0.00 | 66 | 1017.3 |
| 20260502063603 | 15 | 209 | 4.8 | 17.7 | 0.00 | 0.00 | 0.00 | 67 | 1017.3 |
| 20260502062703 | 15 | 198 | 4.8 | 17.7 | 0.00 | 0.00 | 0.00 | 67 | 1017.4 |
| 20260502061803 | 15 | 206 | 3.2 | 11.3 | 0.00 | 0.00 | 0.00 | 68 | 1017.4 |
| 20260502060903 | 15 | 194 | 3.2 | 11.3 | 0.00 | 0.00 | 0.00 | 67 | 1017.4 |
| 20260502060003 | 15 | 178 | 4.8 | 9.7 | 0.00 | 0.00 | 0.00 | 68 | 1017.5 |
| 20260502055403 | 14 | 173 | 4.8 | 11.3 | 0.00 | 0.00 | 0.00 | 69 | 1017.5 |
| 20260502054503 | 14 | 170 | 3.2 | 8.0 | 0.00 | 0.00 | 0.00 | 69 | 1017.6 |
| 20260502053603 | 14 | 160 | 1.6 | 6.4 | 0.00 | 0.00 | 0.00 | 70 | 1017.7 |
| 20260502052703 | 13 | 0 | 0.0 | 4.8 | 0.00 | 0.00 | 0.00 | 72 | 1017.7 |
| 20260502051803 | 13 | 149 | 1.6 | 3.2 | 0.00 | 0.00 | 0.00 | 73 | 1017.7 |
| 20260502050903 | 12 | 0 | 0.0 | 3.2 | 0.00 | 0.00 | 0.00 | 74 | 1017.8 |
| 20260502050003 | 12 | 0 | 0.0 | 3.2 | 0.00 | 0.00 | 0.00 | 74 | 1017.8 |
| 20260502045403 | 12 | 0 | 0.0 | 3.2 | 0.00 | 0.00 | 0.00 | 75 | 1017.8 |
| 20260502044504 | 11 | 142 | 1.6 | 4.8 | 0.00 | 0.00 | 0.00 | 76 | 1017.9 |
| 20260502043603 | 11 | 140 | 1.6 | 4.8 | 0.00 | 0.00 | 0.00 | 77 | 1018.0 |
| 20260502042703 | 11 | 0 | 0.0 | 1.6 | 0.00 | 0.00 | 0.00 | 78 | 1017.9 |
| 20260502041803 | 10 | 0 | 0.0 | 4.8 | 0.00 | 0.00 | 0.00 | 79 | 1018.1 |
| 20260502040903 | 10 | 140 | 1.6 | 3.2 | 0.00 | 0.00 | 0.00 | 80 | 1018.2 |
| 20260502040218 | 10 | 0 | 0.0 | 4.8 | 0.00 | 0.00 | 0.00 | 80 | 1018.3 |
| 20260502035403 | 9 | 0 | 0.0 | 1.6 | 0.00 | 0.00 | 0.00 | 80 | 1018.4 |
| 20260502034503 | 9 | 0 | 0.0 | 0.0 | 0.00 | 0.00 | 0.00 | 80 | 1018.5 |
| 20260502033603 | 9 | 0 | 0.0 | 0.0 | 0.00 | 0.00 | 0.00 | 80 | 1018.6 |
| 20260502032703 | 9 | 0 | 0.0 | 0.0 | 0.00 | 0.00 | 0.00 | 80 | 1018.8 |
| 20260502031803 | 9 | 0 | 0.0 | 0.0 | 0.00 | 0.00 | 0.00 | 79 | 1018.8 |
| 20260502030903 | 10 | 0 | 0.0 | 0.0 | 0.00 | 0.00 | 0.00 | 78 | 1019.0 |
| 20260502030003 | 10 | 0 | 0.0 | 0.0 | 0.00 | 0.00 | 0.00 | 78 | 1019.2 |
| 20260502025403 | 10 | 0 | 0.0 | 0.0 | 0.00 | 0.00 | 0.00 | 77 | 1019.2 |
| 20260502024503 | 10 | 0 | 0.0 | 0.0 | 0.00 | 0.00 | 0.00 | 77 | 1019.3 |
| 20260502023603 | 10 | 0 | 0.0 | 1.6 | 0.00 | 0.00 | 0.00 | 77 | 1019.4 |
| 20260502022919 | 10 | 150 | 1.6 | 4.8 | 0.00 | 0.00 | 0.00 | 76 | 1019.4 |
| 20260502021803 | 11 | 157 | 1.6 | 4.8 | 0.00 | 0.00 | 0.00 | 76 | 1019.6 |
| 20260502020903 | 11 | 156 | 1.6 | 6.4 | 0.00 | 0.00 | 0.00 | 75 | 1019.7 |
| 20260502020003 | 11 | 162 | 3.2 | 8.0 | 0.00 | 0.00 | 0.00 | 75 | 1019.7 |
| 20260502015403 | 11 | 157 | 3.2 | 8.0 | 0.00 | 0.00 | 0.00 | 74 | 1019.8 |
| 20260502014503 | 11 | 160 | 3.2 | 8.0 | 0.00 | 0.00 | 0.00 | 74 | 1020.0 |
| 20260502013815 | 11 | 167 | 3.2 | 9.7 | 0.00 | 0.00 | 0.00 | 73 | 1020.0 |
| 20260502012703 | 11 | 167 | 4.8 | 9.7 | 0.00 | 0.00 | 0.00 | 73 | 1020.2 |
| 20260502011803 | 11 | 167 | 4.8 | 11.3 | 0.00 | 0.00 | 0.00 | 73 | 1020.3 |
| 20260502010903 | 11 | 160 | 4.8 | 9.7 | 0.00 | 0.00 | 0.00 | 73 | 1020.4 |
| 20260502010003 | 11 | 166 | 4.8 | 9.7 | 0.00 | 0.00 | 0.00 | 72 | 1020.5 |
| 20260502005403 | 11 | 163 | 4.8 | 8.0 | 0.00 | 0.00 | 0.00 | 72 | 1020.7 |
| 20260502004503 | 11 | 168 | 4.8 | 8.0 | 0.00 | 0.00 | 0.00 | 72 | 1020.7 |
| 20260502003603 | 12 | 163 | 4.8 | 8.0 | 0.00 | 0.00 | 0.00 | 72 | 1020.9 |
| 20260502002703 | 12 | 153 | 4.8 | 9.7 | 0.00 | 0.00 | 0.00 | 72 | 1021.0 |
| 20260502001803 | 12 | 161 | 3.2 | 11.3 | 0.00 | 0.00 | 0.00 | 71 | 1021.1 |
| 20260502000903 | 12 | 165 | 4.8 | 11.3 | 0.00 | 0.00 | 0.00 | 71 | 1021.3 |
| 20260502000003 | 12 | 167 | 3.2 | 9.7 | 0.00 | 0.00 | 0.00 | 71 | 1021.4 |
| 20260501235403 | 12 | 162 | 3.2 | 9.7 | 0.00 | 0.00 | 0.00 | 71 | 1021.4 |
| 20260501234503 | 11 | 156 | 3.2 | 8.0 | 0.00 | 0.00 | 0.00 | 71 | 1021.5 |
| 20260501233603 | 11 | 149 | 3.2 | 8.0 | 0.00 | 0.00 | 0.00 | 72 | 1021.6 |
| 20260501232918 | 11 | 144 | 1.6 | 4.8 | 0.00 | 0.00 | 0.00 | 72 | 1021.7 |
| 20260501231803 | 11 | 144 | 1.6 | 4.8 | 0.00 | 0.00 | 0.00 | 72 | 1021.8 |
| 20260501230903 | 11 | 0 | 0.0 | 3.2 | 0.00 | 0.00 | 0.00 | 72 | 1021.9 |
| 20260501230003 | 11 | 134 | 1.6 | 4.8 | 0.00 | 0.00 | 0.00 | 72 | 1022.0 |
| 20260501225403 | 11 | 141 | 1.6 | 3.2 | 0.00 | 0.00 | 0.00 | 72 | 1022.1 |
| 20260501224503 | 11 | 0 | 0.0 | 1.6 | 0.00 | 0.00 | 0.00 | 72 | 1022.1 |
| 20260501223603 | 11 | 0 | 0.0 | 4.8 | 0.00 | 0.00 | 0.00 | 72 | 1022.3 |
| 20260501222703 | 11 | 0 | 0.0 | 0.0 | 0.00 | 0.00 | 0.00 | 73 | 1022.4 |
| 20260501221803 | 11 | 0 | 0.0 | 0.0 | 0.00 | 0.00 | 0.00 | 74 | 1022.4 |
| 20260501220903 | 11 | 0 | 0.0 | 0.0 | 0.00 | 0.00 | 0.00 | 73 | 1022.5 |
| 20260501220003 | 11 | 0 | 0.0 | 0.0 | 0.00 | 0.00 | 0.00 | 74 | 1022.6 |
| 20260501215619 | 11 | 0 | 0.0 | 0.0 | 0.00 | 0.00 | 0.00 | 73 | 1022.6 |
| 20260501214503 | 12 | 0 | 0.0 | 0.0 | 0.00 | 0.00 | 0.00 | 73 | 1022.8 |
| 20260501213603 | 12 | 0 | 0.0 | 0.0 | 0.00 | 0.00 | 0.00 | 73 | 1022.9 |
| 20260501212703 | 12 | 0 | 0.0 | 0.0 | 0.00 | 0.00 | 0.00 | 73 | 1022.9 |
| 20260501211803 | 12 | 0 | 0.0 | 0.0 | 0.00 | 0.00 | 0.00 | 73 | 1022.9 |
| 20260501210903 | 12 | 0 | 0.0 | 0.0 | 0.00 | 0.00 | 0.00 | 72 | 1023.0 |
| 20260501210003 | 12 | 0 | 0.0 | 0.0 | 0.00 | 0.00 | 0.00 | 71 | 1023.0 |
| 20260501205403 | 13 | 0 | 0.0 | 0.0 | 0.00 | 0.00 | 0.00 | 71 | 1023.0 |
| 20260501204503 | 13 | 0 | 0.0 | 0.0 | 0.00 | 0.00 | 0.00 | 70 | 1023.1 |
| 20260501203603 | 13 | 0 | 0.0 | 0.0 | 0.00 | 0.00 | 0.00 | 70 | 1023.2 |
| 20260501202703 | 13 | 0 | 0.0 | 0.0 | 0.00 | 0.00 | 0.00 | 69 | 1023.2 |
| 20260501202016 | 13 | 0 | 0.0 | 0.0 | 0.00 | 0.00 | 0.00 | 69 | 1023.2 |
| 20260501200903 | 13 | 0 | 0.0 | 0.0 | 0.00 | 0.00 | 0.00 | 68 | 1023.4 |